******** Week 319 almanac for PRN-01 ******** ID: 01 Health: 000 Eccentricity: 0.5354881287E-003 Time of Applicability(s): 61440.0000 Orbital Inclination(rad): 0.9593515847 Rate of Right Ascen(r/s): -0.8046049436E-008 SQRT(A) (m 1/2): 5153.674316 Right Ascen at Week(rad): 0.1995069722E+001 Argument of Perigee(rad): 0.207618457 Mean Anom(rad): 0.2833610807E+001 Af0(s): 0.2641677856E-003 Af1(s/s): 0.1455191523E-010 week: 319 ******** Week 319 almanac for PRN-02 ******** ID: 02 Health: 000 Eccentricity: 0.1639509201E-001 Time of Applicability(s): 61440.0000 Orbital Inclination(rad): 0.9654875079 Rate of Right Ascen(r/s): -0.7908900866E-008 SQRT(A) (m 1/2): 5153.660156 Right Ascen at Week(rad): 0.1831014671E+001 Argument of Perigee(rad): -0.987054843 Mean Anom(rad): -0.1727023432E+001 Af0(s): -0.1668930054E-003 Af1(s/s): 0.1091393642E-010 week: 319 ******** Week 319 almanac for PRN-03 ******** ID: 03 Health: 000 Eccentricity: 0.6236076355E-002 Time of Applicability(s): 61440.0000 Orbital Inclination(rad): 0.9898694135 Rate of Right Ascen(r/s): -0.7794610391E-008 SQRT(A) (m 1/2): 5153.735352 Right Ascen at Week(rad): 0.2973029662E+001 Argument of Perigee(rad): 1.161056801 Mean Anom(rad): 0.9486959610E+000 Af0(s): 0.6914138794E-003 Af1(s/s): 0.0000000000E+000 week: 319 ******** Week 319 almanac for PRN-04 ******** ID: 04 Health: 000 Eccentricity: 0.3276348114E-002 Time of Applicability(s): 61440.0000 Orbital Inclination(rad): 0.9676446684 Rate of Right Ascen(r/s): -0.7737465154E-008 SQRT(A) (m 1/2): 5153.578125 Right Ascen at Week(rad): -0.2235926427E+001 Argument of Perigee(rad): -2.900720219 Mean Anom(rad): -0.2449866188E+001 Af0(s): 0.5683898926E-003 Af1(s/s): 0.3637978807E-011 week: 319 ******** Week 319 almanac for PRN-05 ******** ID: 05 Health: 000 Eccentricity: 0.5745887756E-002 Time of Applicability(s): 61440.0000 Orbital Inclination(rad): 0.9766328371 Rate of Right Ascen(r/s): -0.7943188009E-008 SQRT(A) (m 1/2): 5153.513672 Right Ascen at Week(rad): 0.2917096288E+001 Argument of Perigee(rad): 1.355625186 Mean Anom(rad): -0.1828760138E+001 Af0(s): -0.2098083496E-003 Af1(s/s): 0.0000000000E+000 week: 319 ******** Week 319 almanac for PRN-06 ******** ID: 06 Health: 000 Eccentricity: 0.3371238708E-002 Time of Applicability(s): 61440.0000 Orbital Inclination(rad): 0.9885631330 Rate of Right Ascen(r/s): -0.7737465154E-008 SQRT(A) (m 1/2): 5153.529297 Right Ascen at Week(rad): 0.1937451066E+001 Argument of Perigee(rad): -0.636975785 Mean Anom(rad): 0.2159767801E+001 Af0(s): -0.3633499146E-003 Af1(s/s): -0.1818989404E-010 week: 319 ******** Week 319 almanac for PRN-07 ******** ID: 07 Health: 000 Eccentricity: 0.1968097687E-001 Time of Applicability(s): 61440.0000 Orbital Inclination(rad): 0.9501536921 Rate of Right Ascen(r/s): -0.7840326581E-008 SQRT(A) (m 1/2): 5153.664551 Right Ascen at Week(rad): -0.1224922233E+001 Argument of Perigee(rad): -2.047719792 Mean Anom(rad): 0.1333194837E+001 Af0(s): -0.2861022949E-004 Af1(s/s): -0.3637978807E-011 week: 319 ******** Week 319 almanac for PRN-08 ******** ID: 08 Health: 000 Eccentricity: 0.1047945023E-001 Time of Applicability(s): 61440.0000 Orbital Inclination(rad): 0.9478587131 Rate of Right Ascen(r/s): -0.7908900866E-008 SQRT(A) (m 1/2): 5153.509277 Right Ascen at Week(rad): 0.8280953352E+000 Argument of Perigee(rad): 0.454363911 Mean Anom(rad): -0.2212083062E+001 Af0(s): 0.5197525024E-003 Af1(s/s): 0.3637978807E-011 week: 319 ******** Week 319 almanac for PRN-09 ******** ID: 09 Health: 000 Eccentricity: 0.3056049347E-002 Time of Applicability(s): 61440.0000 Orbital Inclination(rad): 0.9615986269 Rate of Right Ascen(r/s): -0.7817468486E-008 SQRT(A) (m 1/2): 5153.664062 Right Ascen at Week(rad): -0.2298114068E+001 Argument of Perigee(rad): 2.004755597 Mean Anom(rad): -0.1563706534E+001 Af0(s): 0.6618499756E-003 Af1(s/s): 0.1091393642E-010 week: 319 ******** Week 319 almanac for PRN-10 ******** ID: 10 Health: 000 Eccentricity: 0.1012897491E-001 Time of Applicability(s): 61440.0000 Orbital Inclination(rad): 0.9894619498 Rate of Right Ascen(r/s): -0.7806039439E-008 SQRT(A) (m 1/2): 5153.607422 Right Ascen at Week(rad): 0.2970518218E+001 Argument of Perigee(rad): -2.312937430 Mean Anom(rad): -0.1371751833E+000 Af0(s): -0.4272460938E-003 Af1(s/s): -0.1091393642E-010 week: 319 ******** Week 319 almanac for PRN-11 ******** ID: 11 Health: 000 Eccentricity: 0.1749992371E-002 Time of Applicability(s): 61440.0000 Orbital Inclination(rad): 0.9653257209 Rate of Right Ascen(r/s): -0.7977475151E-008 SQRT(A) (m 1/2): 5153.612793 Right Ascen at Week(rad): 0.1962594345E+001 Argument of Perigee(rad): -2.411022694 Mean Anom(rad): -0.2874534688E+001 Af0(s): -0.7114410400E-003 Af1(s/s): 0.7275957614E-011 week: 319 ******** Week 319 almanac for PRN-12 ******** ID: 12 Health: 000 Eccentricity: 0.8824348450E-002 Time of Applicability(s): 61440.0000 Orbital Inclination(rad): 0.9606698495 Rate of Right Ascen(r/s): -0.7840326581E-008 SQRT(A) (m 1/2): 5153.632324 Right Ascen at Week(rad): -0.1083935692E+000 Argument of Perigee(rad): 1.506724166 Mean Anom(rad): 0.6097974354E+000 Af0(s): -0.5846023560E-003 Af1(s/s): 0.0000000000E+000 week: 319 ******** Week 319 almanac for PRN-13 ******** ID: 13 Health: 000 Eccentricity: 0.9158134460E-002 Time of Applicability(s): 61440.0000 Orbital Inclination(rad): 0.9736068203 Rate of Right Ascen(r/s): -0.7634603726E-008 SQRT(A) (m 1/2): 5153.639160 Right Ascen at Week(rad): -0.2126972220E+001 Argument of Perigee(rad): 0.954776832 Mean Anom(rad): -0.2363444572E+001 Af0(s): 0.7009506226E-003 Af1(s/s): 0.0000000000E+000 week: 319 ******** Week 319 almanac for PRN-14 ******** ID: 14 Health: 000 Eccentricity: 0.5804538727E-002 Time of Applicability(s): 61440.0000 Orbital Inclination(rad): 0.9439758242 Rate of Right Ascen(r/s): -0.8023191341E-008 SQRT(A) (m 1/2): 5153.654297 Right Ascen at Week(rad): -0.1584269592E+000 Argument of Perigee(rad): -2.811226896 Mean Anom(rad): 0.4851221732E+000 Af0(s): 0.6475448608E-003 Af1(s/s): 0.3637978807E-011 week: 319 ******** Week 319 almanac for PRN-15 ******** ID: 15 Health: 000 Eccentricity: 0.1621484756E-001 Time of Applicability(s): 61440.0000 Orbital Inclination(rad): 0.9391401894 Rate of Right Ascen(r/s): -0.8046049436E-008 SQRT(A) (m 1/2): 5153.531250 Right Ascen at Week(rad): -0.2435039080E+001 Argument of Perigee(rad): 1.416928616 Mean Anom(rad): 0.3115104520E+001 Af0(s): 0.2975463867E-003 Af1(s/s): 0.3637978807E-011 week: 319 ******** Week 319 almanac for PRN-16 ******** ID: 16 Health: 000 Eccentricity: 0.1445484161E-001 Time of Applicability(s): 61440.0000 Orbital Inclination(rad): 0.9599567881 Rate of Right Ascen(r/s): -0.7851755629E-008 SQRT(A) (m 1/2): 5153.681641 Right Ascen at Week(rad): -0.9100296083E-001 Argument of Perigee(rad): 0.885141369 Mean Anom(rad): -0.1125146445E+001 Af0(s): 0.1811981201E-004 Af1(s/s): 0.7275957614E-011 week: 319 ******** Week 319 almanac for PRN-17 ******** ID: 17 Health: 000 Eccentricity: 0.1305580139E-001 Time of Applicability(s): 61440.0000 Orbital Inclination(rad): 0.9635760240 Rate of Right Ascen(r/s): -0.7783181344E-008 SQRT(A) (m 1/2): 5153.638184 Right Ascen at Week(rad): 0.9283594803E+000 Argument of Perigee(rad): -1.214859604 Mean Anom(rad): -0.2115839625E+001 Af0(s): 0.2756118774E-003 Af1(s/s): -0.1818989404E-010 week: 319 ******** Week 319 almanac for PRN-18 ******** ID: 18 Health: 000 Eccentricity: 0.5078315735E-002 Time of Applicability(s): 61440.0000 Orbital Inclination(rad): 0.9734869780 Rate of Right Ascen(r/s): -0.7863184676E-008 SQRT(A) (m 1/2): 5153.648438 Right Ascen at Week(rad): 0.1936474726E+001 Argument of Perigee(rad): -2.958981529 Mean Anom(rad): 0.2151818515E+001 Af0(s): -0.6237030029E-003 Af1(s/s): 0.3637978807E-011 week: 319 ******** Week 319 almanac for PRN-19 ******** ID: 19 Health: 000 Eccentricity: 0.1054286957E-001 Time of Applicability(s): 61440.0000 Orbital Inclination(rad): 0.9627730810 Rate of Right Ascen(r/s): -0.7771752296E-008 SQRT(A) (m 1/2): 5153.586426 Right Ascen at Week(rad): 0.9724734122E+000 Argument of Perigee(rad): 2.768340973 Mean Anom(rad): -0.2556534778E+000 Af0(s): 0.6294250488E-003 Af1(s/s): 0.3637978807E-011 week: 319 ******** Week 319 almanac for PRN-20 ******** ID: 20 Health: 000 Eccentricity: 0.3474712372E-002 Time of Applicability(s): 61440.0000 Orbital Inclination(rad): 0.9586684839 Rate of Right Ascen(r/s): -0.8137481816E-008 SQRT(A) (m 1/2): 5153.721680 Right Ascen at Week(rad): 0.2782120210E+001 Argument of Perigee(rad): -2.262968456 Mean Anom(rad): 0.2383934600E+001 Af0(s): 0.3643035889E-003 Af1(s/s): 0.0000000000E+000 week: 319 ******** Week 319 almanac for PRN-22 ******** ID: 22 Health: 000 Eccentricity: 0.1312494278E-001 Time of Applicability(s): 61440.0000 Orbital Inclination(rad): 0.9593455926 Rate of Right Ascen(r/s): -0.7863184676E-008 SQRT(A) (m 1/2): 5153.598633 Right Ascen at Week(rad): -0.8768932265E-001 Argument of Perigee(rad): -1.062284317 Mean Anom(rad): -0.1602098748E+001 Af0(s): -0.1029968262E-003 Af1(s/s): 0.0000000000E+000 week: 319 ******** Week 319 almanac for PRN-23 ******** ID: 23 Health: 000 Eccentricity: 0.5185127258E-002 Time of Applicability(s): 61440.0000 Orbital Inclination(rad): 0.9845364334 Rate of Right Ascen(r/s): -0.7863184676E-008 SQRT(A) (m 1/2): 5153.602539 Right Ascen at Week(rad): 0.2939825494E+001 Argument of Perigee(rad): -2.847364952 Mean Anom(rad): 0.1057191771E+001 Af0(s): 0.4787445068E-003 Af1(s/s): 0.7275957614E-011 week: 319 ******** Week 319 almanac for PRN-24 ******** ID: 24 Health: 000 Eccentricity: 0.1667737961E-001 Time of Applicability(s): 61440.0000 Orbital Inclination(rad): 0.9339510201 Rate of Right Ascen(r/s): -0.8023191341E-008 SQRT(A) (m 1/2): 5153.617188 Right Ascen at Week(rad): -0.1328294787E+001 Argument of Perigee(rad): 1.060900888 Mean Anom(rad): 0.2297143345E+001 Af0(s): -0.4005432129E-003 Af1(s/s): 0.7275957614E-011 week: 319 ******** Week 319 almanac for PRN-25 ******** ID: 25 Health: 000 Eccentricity: 0.1228237152E-001 Time of Applicability(s): 61440.0000 Orbital Inclination(rad): 0.9488054668 Rate of Right Ascen(r/s): -0.7966046104E-008 SQRT(A) (m 1/2): 5153.569336 Right Ascen at Week(rad): -0.1989463726E+000 Argument of Perigee(rad): 1.125349428 Mean Anom(rad): 0.5259614156E+000 Af0(s): 0.4873275757E-003 Af1(s/s): 0.0000000000E+000 week: 319 ******** Week 319 almanac for PRN-26 ******** ID: 26 Health: 000 Eccentricity: 0.9994506836E-002 Time of Applicability(s): 61440.0000 Orbital Inclination(rad): 0.9295348332 Rate of Right Ascen(r/s): -0.8194627053E-008 SQRT(A) (m 1/2): 5153.504883 Right Ascen at Week(rad): -0.2680234449E+000 Argument of Perigee(rad): 0.631678009 Mean Anom(rad): -0.3393359497E+000 Af0(s): -0.2441406250E-003 Af1(s/s): -0.1818989404E-010 week: 319 ******** Week 319 almanac for PRN-27 ******** ID: 27 Health: 000 Eccentricity: 0.1347827911E-001 Time of Applicability(s): 61440.0000 Orbital Inclination(rad): 0.9569187871 Rate of Right Ascen(r/s): -0.7817468486E-008 SQRT(A) (m 1/2): 5153.644043 Right Ascen at Week(rad): 0.8576293339E+000 Argument of Perigee(rad): 0.846937533 Mean Anom(rad): -0.2056328960E+001 Af0(s): -0.2574920654E-004 Af1(s/s): 0.0000000000E+000 week: 319 ******** Week 319 almanac for PRN-28 ******** ID: 28 Health: 000 Eccentricity: 0.2655982971E-003 Time of Applicability(s): 61440.0000 Orbital Inclination(rad): 0.9611612027 Rate of Right Ascen(r/s): -0.7748894201E-008 SQRT(A) (m 1/2): 5153.556641 Right Ascen at Week(rad): -0.1253946903E+001 Argument of Perigee(rad): 0.211093508 Mean Anom(rad): 0.1453167414E+001 Af0(s): -0.6132125854E-003 Af1(s/s): -0.3637978807E-011 week: 319 ******** Week 319 almanac for PRN-29 ******** ID: 29 Health: 000 Eccentricity: 0.3254413605E-002 Time of Applicability(s): 61440.0000 Orbital Inclination(rad): 0.9661286639 Rate of Right Ascen(r/s): -0.7760323249E-008 SQRT(A) (m 1/2): 5153.603516 Right Ascen at Week(rad): 0.9443119817E+000 Argument of Perigee(rad): 2.657157326 Mean Anom(rad): -0.2177528797E+001 Af0(s): -0.5054473877E-003 Af1(s/s): 0.3637978807E-011 week: 319 ******** Week 319 almanac for PRN-30 ******** ID: 30 Health: 000 Eccentricity: 0.7695198059E-002 Time of Applicability(s): 61440.0000 Orbital Inclination(rad): 0.9353471823 Rate of Right Ascen(r/s): -0.8011762293E-008 SQRT(A) (m 1/2): 5153.623535 Right Ascen at Week(rad): -0.1229634281E+001 Argument of Perigee(rad): -2.371496098 Mean Anom(rad): 0.1137590565E+001 Af0(s): -0.1420974731E-003 Af1(s/s): 0.1091393642E-010 week: 319 ******** Week 319 almanac for PRN-31 ******** ID: 31 Health: 000 Eccentricity: 0.1055955887E-001 Time of Applicability(s): 61440.0000 Orbital Inclination(rad): 0.9540245968 Rate of Right Ascen(r/s): -0.7840326581E-008 SQRT(A) (m 1/2): 5153.608887 Right Ascen at Week(rad): -0.1201923757E+001 Argument of Perigee(rad): 0.819212777 Mean Anom(rad): 0.4005817056E+000 Af0(s): -0.2069473267E-003 Af1(s/s): 0.0000000000E+000 week: 319 ******** Week 319 almanac for PRN-32 ******** ID: 32 Health: 000 Eccentricity: 0.8581161499E-002 Time of Applicability(s): 61440.0000 Orbital Inclination(rad): 0.9648044071 Rate of Right Ascen(r/s): -0.7760323249E-008 SQRT(A) (m 1/2): 5153.562012 Right Ascen at Week(rad): -0.2282139470E+001 Argument of Perigee(rad): -2.058997322 Mean Anom(rad): -0.1441028143E+001 Af0(s): -0.4482269287E-003 Af1(s/s): 0.1091393642E-010 week: 319